This is the latest recevied weather packets stored in our database for station/object DC2ML-11. If no packets are shown the sender has not sent any weather packets the latest 10 day(s).
| Time | Temp. | Humidity | Pressure | Rain* | Wind** | Luminosity | Snow |
|---|---|---|---|---|---|---|---|
| 1777562797 | 21.11° C | 33% | 1026.8 hPa | - | - | - | - |
| 1777561897 | 20.56° C | 33% | 1026.7 hPa | - | - | - | - |
| 1777560997 | 20.56° C | 33% | 1026.8 hPa | - | - | - | - |
| 1777560096 | 20.56° C | 32% | 1026.9 hPa | - | - | - | - |
| 1777559213 | 20.56° C | 32% | 1027.1 hPa | - | - | - | - |
| 1777558297 | 20° C | 32% | 1027.1 hPa | - | - | - | - |
| 1777557397 | 20° C | 32% | 1027.3 hPa | - | - | - | - |
| 1777556496 | 20° C | 31% | 1027.5 hPa | - | - | - | - |
| 1777555596 | 20° C | 31% | 1027.5 hPa | - | - | - | - |
| 1777554696 | 19.44° C | 31% | 1027.8 hPa | - | - | - | - |
| 1777553796 | 19.44° C | 30% | 1027.9 hPa | - | - | - | - |
| 1777552896 | 19.44° C | 30% | 1027.9 hPa | - | - | - | - |
| 1777551996 | 19.44° C | 30% | 1028 hPa | - | - | - | - |
| 1777551096 | 19.44° C | 28% | 1028.3 hPa | - | - | - | - |
| 1777550196 | 19.44° C | 26% | 1028.2 hPa | - | - | - | - |
| 1777549296 | 19.44° C | 27% | 1028.5 hPa | - | - | - | - |
| 1777548395 | 19.44° C | 28% | 1028.6 hPa | - | - | - | - |
| 1777547495 | 18.89° C | 33% | 1028.7 hPa | - | - | - | - |
| 1777546595 | 18.89° C | 34% | 1028.8 hPa | - | - | - | - |
| 1777545695 | 18.33° C | 32% | 1029.1 hPa | - | - | - | - |
| 1777544794 | 17.22° C | 31% | 1029.1 hPa | - | - | - | - |
| 1777543894 | 16.67° C | 37% | 1029.2 hPa | - | - | - | - |
| 1777542994 | 16.67° C | 37% | 1029.4 hPa | - | - | - | - |
| 1777542093 | 16.11° C | 37% | 1029.3 hPa | - | - | - | - |
| 1777541193 | 16.11° C | 37% | 1029.6 hPa | - | - | - | - |
* Rain since midnight (hover to see other rain measurements)
** Current wind speed in m/s (hover to see current wind gust speed)